Torna al catalogo

STARLINK-34429

AttivoComunicazioniVLEO
NORAD 64464·PAYLOAD·🇺🇸 United States

Lanciato Jun 18, 2025 da Cape Canaveral Space Force Station

Loading…

Prossimi Passaggi (prossime 24 ore)

TLE

AggiornatoSource: CelesTrak SupGP

Epoca: Sep 14, 2026, 21:03 UTC

1 64464C 25130AC  26257.87756944  .00028697  00000+0  84810-3 0  2579
2 64464  53.1580 285.6593 0001185  89.6244  15.8468 15.34366928    14

Traccia STARLINK-34429 in tempo reale con AllMySat

Download on the App Store